| time (UTC) | temp C | wind direction | speed KPH | gust KPH | rain 1hr cm | rain 24hr cm | rain mn cm | humidity % | barometer mb |
| 20260507023034 | 6 | 151 | 0.0 | 0.0 | 0.00 | 0.00 | 0.00 | 98 | 1007.2 |
| 20260507022034 | 6 | 152 | 0.0 | 0.0 | 0.00 | 0.00 | 0.00 | 98 | 1007.2 |
| 20260507021033 | 6 | 151 | 0.0 | 0.0 | 0.00 | 0.00 | 0.00 | 98 | 1007.1 |
| 20260507020034 | 6 | 152 | 0.0 | 0.0 | 0.00 | 0.00 | 0.00 | 98 | 1007.2 |
| 20260507015034 | 6 | 151 | 0.0 | 0.0 | 0.00 | 0.00 | 0.00 | 98 | 1007.0 |
| 20260507014034 | 6 | 151 | 0.0 | 0.0 | 0.00 | 0.00 | 0.00 | 98 | 1007.0 |
| 20260507013033 | 5 | 151 | 0.0 | 0.0 | 0.00 | 0.00 | 0.00 | 98 | 1007.2 |
| 20260507012033 | 5 | 151 | 0.0 | 0.0 | 0.00 | 0.00 | 0.00 | 98 | 1006.7 |
| 20260507011033 | 5 | 151 | 0.0 | 0.0 | 0.00 | 0.00 | 0.00 | 98 | 1007.0 |
| 20260507010033 | 5 | 151 | 0.0 | 0.0 | 0.00 | 0.00 | 0.00 | 98 | 1006.8 |
| 20260507005033 | 6 | 152 | 0.0 | 0.0 | 0.00 | 0.00 | 0.00 | 98 | 1006.7 |
| 20260507004033 | 6 | 149 | 0.0 | 0.0 | 0.00 | 0.00 | 0.00 | 98 | 1006.7 |
| 20260507003034 | 5 | 170 | 0.0 | 0.0 | 0.00 | 0.00 | 0.00 | 97 | 1006.6 |
| 20260507002034 | 6 | 170 | 0.0 | 0.0 | 0.00 | 0.00 | 0.00 | 97 | 1006.8 |
| 20260507001033 | 6 | 170 | 0.0 | 0.0 | 0.00 | 0.00 | 0.00 | 97 | 1006.8 |
| 20260507000033 | 7 | 170 | 0.0 | 0.0 | 0.00 | 0.00 | 0.00 | 97 | 1006.8 |
| 20260506235033 | 7 | 170 | 0.0 | 0.0 | 0.00 | 0.00 | 0.00 | 97 | 1006.8 |
| 20260506234033 | 7 | 151 | 0.0 | 4.8 | 0.00 | 0.00 | 0.00 | 97 | 1006.8 |
| 20260506233033 | 7 | 170 | 0.0 | 0.0 | 0.00 | 0.00 | 0.00 | 97 | 1007.0 |
| 20260506232034 | 7 | 269 | 0.0 | 0.0 | 0.00 | 0.00 | 0.00 | 97 | 1007.0 |
| 20260506231034 | 7 | 147 | 0.0 | 0.0 | 0.00 | 0.00 | 0.00 | 97 | 1006.8 |
| 20260506230033 | 7 | 152 | 0.0 | 0.0 | 0.00 | 0.00 | 0.00 | 97 | 1007.0 |
| 20260506225033 | 7 | 152 | 0.0 | 0.0 | 0.00 | 0.00 | 0.00 | 97 | 1007.0 |
| 20260506224033 | 8 | 215 | 0.0 | 0.0 | 0.00 | 0.00 | 0.00 | 97 | 1006.7 |
| 20260506223033 | 8 | 142 | 0.0 | 0.0 | 0.00 | 0.00 | 0.00 | 98 | 1006.8 |
| 20260506222033 | 8 | 134 | 0.0 | 0.0 | 0.00 | 0.00 | 0.00 | 98 | 1006.5 |
| 20260506221033 | 8 | 133 | 0.0 | 1.6 | 0.00 | 0.00 | 0.00 | 98 | 1006.5 |
| 20260506220033 | 8 | 160 | 0.0 | 0.0 | 0.00 | 0.00 | 1.22 | 98 | 1006.1 |
| 20260506215034 | 8 | 160 | 0.0 | 0.0 | 0.00 | 0.00 | 1.22 | 98 | 1006.4 |
| 20260506214034 | 8 | 160 | 0.0 | 0.0 | 0.00 | 0.00 | 1.22 | 98 | 1006.1 |
| 20260506213033 | 8 | 160 | 0.0 | 0.0 | 0.00 | 0.00 | 1.22 | 98 | 1006.4 |
| 20260506212033 | 8 | 160 | 0.0 | 0.0 | 0.00 | 0.00 | 1.22 | 98 | 1006.3 |
| 20260506211033 | 8 | 160 | 0.0 | 0.0 | 0.00 | 0.00 | 1.22 | 98 | 1006.3 |
| 20260506210033 | 8 | 165 | 0.0 | 0.0 | 0.00 | 0.00 | 1.22 | 97 | 1006.2 |
| 20260506205033 | 8 | 167 | 0.0 | 0.0 | 0.00 | 0.00 | 1.22 | 97 | 1006.0 |
| 20260506204033 | 8 | 167 | 0.0 | 0.0 | 0.00 | 0.00 | 1.22 | 97 | 1006.0 |
| 20260506203034 | 8 | 168 | 0.0 | 0.0 | 0.00 | 0.00 | 1.22 | 97 | 1005.9 |
| 20260506202034 | 8 | 168 | 0.0 | 0.0 | 0.00 | 0.00 | 1.22 | 97 | 1006.0 |
| 20260506201033 | 8 | 168 | 0.0 | 0.0 | 0.00 | 0.00 | 1.22 | 97 | 1006.0 |
| 20260506200033 | 8 | 168 | 0.0 | 0.0 | 0.00 | 0.00 | 1.22 | 97 | 1005.8 |
| 20260506195033 | 8 | 167 | 0.0 | 0.0 | 0.00 | 0.00 | 1.22 | 97 | 1005.8 |
| 20260506194033 | 8 | 157 | 0.0 | 0.0 | 0.00 | 0.00 | 1.22 | 97 | 1005.8 |
| 20260506193033 | 8 | 157 | 0.0 | 0.0 | 0.00 | 0.00 | 1.22 | 96 | 1005.7 |
| 20260506192034 | 8 | 140 | 0.0 | 0.0 | 0.00 | 0.00 | 1.22 | 96 | 1005.6 |
| 20260506191034 | 8 | 156 | 0.0 | 0.0 | 0.00 | 0.00 | 1.22 | 96 | 1005.0 |
| 20260506190033 | 9 | 137 | 0.0 | 0.0 | 0.00 | 0.00 | 1.22 | 97 | 1005.3 |
| 20260506185033 | 9 | 294 | 0.0 | 0.0 | 0.00 | 0.00 | 1.22 | 96 | 1005.0 |
| 20260506184033 | 9 | 184 | 0.0 | 0.0 | 0.00 | 0.00 | 1.22 | 96 | 1005.0 |
| 20260506183034 | 9 | 113 | 0.0 | 0.0 | 0.00 | 0.00 | 1.22 | 96 | 1004.7 |
| 20260506182033 | 10 | 166 | 0.0 | 1.6 | 0.05 | 0.00 | 1.22 | 96 | 1004.8 |
| 20260506181033 | 10 | 153 | 0.0 | 0.0 | 0.13 | 0.00 | 1.22 | 96 | 1004.6 |
| 20260506180034 | 10 | 150 | 0.0 | 0.0 | 0.23 | 0.00 | 1.22 | 96 | 1004.3 |
| 20260506175034 | 10 | 153 | 0.0 | 1.6 | 0.38 | 0.00 | 1.22 | 96 | 1004.3 |
| 20260506174033 | 10 | 175 | 0.0 | 0.0 | 0.53 | 0.00 | 1.19 | 96 | 1004.1 |
| 20260506173033 | 10 | 142 | 0.0 | 3.2 | 0.69 | 0.00 | 1.19 | 96 | 1004.0 |
| 20260506172033 | 10 | 174 | 0.0 | 1.6 | 0.66 | 0.00 | 1.14 | 95 | 1003.9 |
| 20260506171033 | 10 | 157 | 0.0 | 1.6 | 0.51 | 0.00 | 1.02 | 95 | 1004.0 |
| 20260506170034 | 10 | 162 | 0.0 | 1.6 | 0.41 | 0.00 | 0.91 | 95 | 1004.2 |
| 20260506165034 | 10 | 125 | 0.0 | 1.6 | 0.28 | 0.00 | 0.76 | 94 | 1004.1 |
| 20260506164034 | 10 | 160 | 3.2 | 4.8 | 0.10 | 0.00 | 0.61 | 94 | 1004.1 |
| 20260506163033 | 10 | 139 | 0.0 | 0.0 | 0.00 | 0.00 | 0.48 | 94 | 1003.8 |
| 20260506162033 | 11 | 123 | 0.0 | 3.2 | 0.10 | 0.00 | 0.48 | 93 | 1003.5 |
| 20260506161033 | 11 | 281 | 0.0 | 6.4 | 0.13 | 0.00 | 0.48 | 92 | 1003.3 |
| 20260506160033 | 11 | 180 | 1.6 | 3.2 | 0.30 | 0.00 | 0.48 | 92 | 1003.6 |
| 20260506155033 | 11 | 122 | 0.0 | 3.2 | 0.48 | 0.00 | 0.48 | 92 | 1003.5 |
| 20260506154034 | 11 | 122 | 1.6 | 4.8 | 0.48 | 0.00 | 0.48 | 93 | 1003.1 |
| 20260506153034 | 11 | 177 | 0.0 | 1.6 | 0.46 | 0.00 | 0.46 | 92 | 1003.0 |
| 20260506152034 | 11 | 261 | 0.0 | 0.0 | 0.38 | 0.00 | 0.38 | 92 | 1002.9 |
| 20260506151033 | 11 | 262 | 0.0 | 0.0 | 0.28 | 0.00 | 0.28 | 90 | 1002.8 |
| 20260506150033 | 13 | 58 | 0.0 | 3.2 | 0.03 | 0.00 | 0.03 | 81 | 1002.4 |
| 20260506145033 | 15 | 125 | 0.0 | 0.0 | 0.00 | 0.00 | 0.00 | 76 | 1002.2 |
| 20260506144033 | 15 | 125 | 1.6 | 3.2 | 0.00 | 0.00 | 0.00 | 70 | 1002.3 |
| 20260506143034 | 16 | 150 | 0.0 | 1.6 | 0.00 | 0.00 | 0.00 | 70 | 1002.0 |
| 20260506142034 | 16 | 124 | 0.0 | 0.0 | 0.00 | 0.00 | 0.00 | 73 | 1002.5 |
| 20260506141034 | 15 | 124 | 0.0 | 0.0 | 0.00 | 0.00 | 0.00 | 77 | 1002.4 |
| 20260506140033 | 15 | 124 | 0.0 | 0.0 | 0.00 | 0.00 | 0.00 | 78 | 1002.3 |
| 20260506135033 | 16 | 123 | 0.0 | 0.0 | 0.00 | 0.00 | 0.00 | 69 | 1002.2 |
| 20260506134033 | 17 | 123 | 0.0 | 0.0 | 0.00 | 0.00 | 0.00 | 64 | 1002.5 |
| 20260506133033 | 16 | 133 | 0.0 | 0.0 | 0.00 | 0.00 | 0.00 | 66 | 1002.3 |
| 20260506132033 | 16 | 126 | 0.0 | 1.6 | 0.00 | 0.00 | 0.00 | 66 | 1002.4 |
| 20260506131033 | 16 | 91 | 0.0 | 0.0 | 0.00 | 0.00 | 0.00 | 69 | 1002.5 |
| 20260506130034 | 16 | 134 | 0.0 | 3.2 | 0.00 | 0.00 | 0.00 | 71 | 1002.6 |
| 20260506125033 | 16 | 119 | 0.0 | 1.6 | 0.00 | 0.00 | 0.00 | 69 | 1002.5 |
| 20260506124033 | 16 | 116 | 0.0 | 1.6 | 0.00 | 0.00 | 0.00 | 70 | 1002.6 |
| 20260506123033 | 16 | 132 | 0.0 | 0.0 | 0.00 | 0.00 | 0.00 | 75 | 1002.6 |
| 20260506122033 | 15 | 132 | 0.0 | 0.0 | 0.00 | 0.00 | 0.00 | 72 | 1002.5 |
| 20260506121033 | 15 | 121 | 0.0 | 1.6 | 0.00 | 0.00 | 0.00 | 76 | 1002.6 |
| 20260506120033 | 15 | 108 | 3.2 | 3.2 | 0.00 | 0.00 | 0.00 | 71 | 1002.7 |
| 20260506115034 | 15 | 123 | 0.0 | 1.6 | 0.00 | 0.00 | 0.00 | 75 | 1002.7 |
| 20260506114034 | 15 | 129 | 0.0 | 0.0 | 0.00 | 0.00 | 0.00 | 76 | 1002.6 |
| 20260506113033 | 15 | 151 | 0.0 | 0.0 | 0.00 | 0.00 | 0.00 | 75 | 1002.7 |
| 20260506112033 | 15 | 271 | 0.0 | 0.0 | 0.00 | 0.00 | 0.00 | 71 | 1002.9 |
| 20260506111033 | 16 | 274 | 0.0 | 0.0 | 0.00 | 0.00 | 0.00 | 71 | 1003.1 |
| 20260506110033 | 16 | 247 | 0.0 | 0.0 | 0.00 | 0.00 | 0.00 | 74 | 1003.2 |
| 20260506105033 | 16 | 238 | 0.0 | 0.0 | 0.00 | 0.00 | 0.00 | 70 | 1003.5 |
| 20260506104034 | 16 | 242 | 0.0 | 0.0 | 0.00 | 0.00 | 0.00 | 68 | 1003.6 |
| 20260506103034 | 16 | 242 | 0.0 | 0.0 | 0.00 | 0.00 | 0.00 | 67 | 1003.3 |
| 20260506102034 | 16 | 262 | 0.0 | 1.6 | 0.00 | 0.00 | 0.00 | 70 | 1003.7 |
| 20260506101033 | 16 | 249 | 0.0 | 1.6 | 0.00 | 0.00 | 0.00 | 70 | 1003.5 |
| 20260506100033 | 16 | 264 | 0.0 | 0.0 | 0.00 | 0.00 | 0.00 | 71 | 1003.1 |
| 20260506095033 | 16 | 186 | 0.0 | 0.0 | 0.00 | 0.00 | 0.00 | 74 | 1003.6 |
| 20260506094033 | 15 | 264 | 0.0 | 3.2 | 0.00 | 0.00 | 0.00 | 73 | 1003.6 |
| 20260506093034 | 15 | 263 | 0.0 | 1.6 | 0.00 | 0.00 | 0.00 | 79 | 1003.5 |
| 20260506092034 | 15 | 263 | 0.0 | 0.0 | 0.00 | 0.00 | 0.00 | 79 | 1003.6 |
| 20260506091033 | 14 | 238 | 0.0 | 0.0 | 0.00 | 0.00 | 0.00 | 79 | 1003.5 |
| 20260506090034 | 14 | 245 | 0.0 | 0.0 | 0.00 | 0.00 | 0.00 | 78 | 1003.6 |
| 20260506085034 | 15 | 236 | 0.0 | 0.0 | 0.00 | 0.00 | 0.00 | 79 | 1003.8 |
| 20260506084034 | 14 | 176 | 0.0 | 0.0 | 0.00 | 0.00 | 0.00 | 82 | 1003.5 |
| 20260506083033 | 14 | 126 | 0.0 | 1.6 | 0.00 | 0.00 | 0.00 | 81 | 1003.5 |
| 20260506082033 | 13 | 285 | 0.0 | 0.0 | 0.00 | 0.00 | 0.00 | 86 | 1003.7 |
| 20260506081033 | 13 | 286 | 0.0 | 1.6 | 0.00 | 0.00 | 0.00 | 85 | 1003.9 |
| 20260506073034 | 13 | 286 | 0.0 | 0.0 | 0.00 | 0.00 | 0.00 | 84 | 1003.8 |
| 20260506072034 | 13 | 285 | 0.0 | 0.0 | 0.00 | 0.00 | 0.00 | 84 | 1003.9 |
| 20260506071033 | 13 | 289 | 0.0 | 0.0 | 0.00 | 0.00 | 0.00 | 82 | 1003.8 |
| 20260506062034 | 8 | 181 | 0.0 | 0.0 | 0.00 | 0.00 | 0.00 | 98 | 1003.7 |
| 20260506061033 | 8 | 179 | 0.0 | 0.0 | 0.00 | 0.00 | 0.00 | 99 | 1003.8 |
| 20260506051034 | 6 | 112 | 0.0 | 0.0 | 0.00 | 0.00 | 0.00 | 99 | 1003.9 |
| 20260506045034 | 6 | 112 | 0.0 | 0.0 | 0.00 | 0.00 | 0.00 | 99 | 1004.2 |
| 20260506044033 | 6 | 112 | 0.0 | 0.0 | 0.00 | 0.00 | 0.00 | 99 | 1004.2 |
| 20260506043033 | 6 | 112 | 0.0 | 0.0 | 0.00 | 0.00 | 0.00 | 99 | 1004.2 |
| 20260506042034 | 6 | 112 | 0.0 | 0.0 | 0.00 | 0.00 | 0.00 | 99 | 1004.1 |
| 20260506041033 | 6 | 113 | 0.0 | 0.0 | 0.00 | 0.00 | 0.00 | 99 | 1004.4 |
| 20260506040033 | 5 | 113 | 0.0 | 0.0 | 0.00 | 0.00 | 0.00 | 99 | 1004.3 |
| 20260506035033 | 5 | 113 | 0.0 | 0.0 | 0.00 | 0.00 | 0.00 | 99 | 1004.3 |
| 20260506034033 | 5 | 113 | 0.0 | 0.0 | 0.00 | 0.00 | 0.00 | 99 | 1004.1 |
| 20260506033033 | 5 | 113 | 0.0 | 0.0 | 0.00 | 0.00 | 0.00 | 99 | 1004.4 |
| 20260506032034 | 5 | 112 | 0.0 | 0.0 | 0.00 | 0.00 | 0.00 | 99 | 1004.4 |
| 20260506031033 | 5 | 112 | 0.0 | 0.0 | 0.00 | 0.00 | 0.00 | 98 | 1004.7 |
| 20260506030033 | 5 | 112 | 0.0 | 0.0 | 0.00 | 0.00 | 0.00 | 99 | 1004.5 |
| 20260506025033 | 5 | 112 | 0.0 | 0.0 | 0.00 | 0.00 | 0.00 | 98 | 1004.6 |
| 20260506024033 | 5 | 112 | 0.0 | 0.0 | 0.00 | 0.00 | 0.00 | 98 | 1004.6 |